STARLINK-1201 (45182 NORAD) Tracking and Keplerian Element Data

This shows tracking and keplerian element data for the satellite.

Feedback or suggestion? Click here.




ElementValue
Catalog45182
NameSTARLINK-1201
Epoch Orbit162
Epoch Day93.91667824
Epoch Year2020
RAAN45.2048
Inclination53.0017
Eccentricity0.0006568
Argument of Perigee311.8078
Mean Anonmoly99.1571
Mean Motion15.55946472
Decay Rate-1.18E-05
L11 45182U 20012E 20093.91667824 -.00001180 00000-0 -96974-5 0 9994
L22 45182 53.0017 45.2048 0006568 311.8078 99.1571 15.55946472 1623

Live tracking and technical data element details for STARLINK-1201 (NORAD 45182). STARLINK-1201 can be tracked NOW for your location showing map with azimuth and elevation plus other details from your city location.

Track the satellite on the map from your city or location and see movement details for azimuth, elevation, latitude, longitude, range, height, and movement on the map or in text.







IsCatalogInMostPopularTable: catalog: 45182, numindb: 7
Update: records affected: 1



GetName: 45182 STARLINK-1201

Hit Count: updated at: Tue, 07 Apr 2020 17:06:00 GMT